NOAA NWS Hourly Roundups by Site

Regional Weather Roundup for Upton, NY

To Select Another Site Choose from List

Select Site:  

000
ASUS41 KOKX 230805
RWROKX

Regional Weather Roundup
National Weather Service New York NY
400 AM EDT WED OCT 23 2019

Note: "FAIR" indicates few or no clouds below 12,000 feet with no
significant weather and/or obstructions to visibility.

NYZ071-072-176-178-NJZ106-104-230900-
New York City Metro Area

CITY           SKY/WX    TMP DP  RH WIND       PRES   REMARKS
Central Park   CLOUDY    59  56  89 W3        29.79S
Bronx Lehman C   N/A     59  55  88 NW6         N/A
LaGuardia Arpt MOCLDY    60  55  83 NW8       29.76S
Queens College   N/A     61  55  82 NW7         N/A
Kennedy Intl   MOCLDY    60  58  92 NW10      29.77R
Breezy Point     N/A     61 N/A N/A W5          N/A
Brooklyn Coll    N/A     61  57  88 W8          N/A
Staten Island    N/A     59  55  88 W5          N/A
Newark/Liberty MOCLDY    60  57  89 W6        29.77S
Teterboro      LGT RAIN  60  56  86 CALM      29.76R
$$

NYZ177-179-078>081-230900-
Long Island New York

CITY           SKY/WX    TMP DP  RH WIND       PRES   REMARKS
Jones Beach      N/A     61 N/A N/A N13         N/A
Wantagh          N/A     61  59  94 NW9         N/A
Hempstead        N/A     59  57  94 NW9       29.79S
Matinecock Pt    N/A     61 N/A N/A N6          N/A
Farmingdale    CLOUDY    60  57  89 NW13G21   29.75R
MacArthur/ISP  LGT RAIN  63  63 100 W7        29.73S FOG
Stony Brook      N/A     61  59  94 NW8         N/A
Shirley        LGT RAIN  65  62  90 SW7       29.73F FOG
Mt Sinai Harb    N/A    N/A N/A N/A SW3         N/A
Westhampton    CLOUDY    63  63 100 S8        29.74F
East Hampton   HVY RAIN  63  62  98 S7        29.73F
Southold         N/A     64  64 100 S9          N/A
Montauk          N/A     63  62  97 VRB5      29.75F
$$

NYZ052-065-067-230900-
Hudson Valley

CITY           SKY/WX    TMP DP  RH WIND       PRES   REMARKS
White Plains   MOCLDY    57  54  89 NW13      29.75F
Larchmont Harb   N/A     59 N/A N/A NW7         N/A
Croton On Huds   N/A     57 N/A N/A N2G8        N/A
Somers           N/A     55  55 100 N3          N/A
Brewster         N/A     55  54  94 N7          N/A
Newburgh       CLOUDY    55  55 100 CALM      29.79F
Montgomery     MOCLDY    54  53  97 W6        29.78F
Otisville        N/A     54  52  94 NW2         N/A
Warwick          N/A     52  52 100 CALM        N/A
Suffern          N/A     57  52  82 N5          N/A
Poughkeepsie   CLOUDY    56  55  97 N3        29.77F
Albany         CLOUDY    55  52  89 CALM      29.82S
$$

NJZ001-105-106-008-010-013-015-019>022-104-230900-
New Jersey

CITY           SKY/WX    TMP DP  RH WIND       PRES   REMARKS
Newark/Liberty MOCLDY    60  57  89 W6        29.77S
Teterboro      LGT RAIN  60  56  86 CALM      29.76R
Caldwell       FAIR      58  57  97 CALM      29.78S
Somerville     FAIR      55  54  96 CALM      29.78R
Linden         PTSUNNY   58  56  92 CALM      29.78S
Perth Amboy      N/A     59 N/A N/A W7          N/A
Sussex         FOG       51  50  96 CALM      29.80S VSB 1/4
Andover          N/A     51  50  96 CALM      29.80S
Trenton        MOCLDY    57  55  93 NW5       29.80R
Millville      FAIR      57  54  89 W8        29.83R
Atlantic City  MOCLDY    59  57  93 NW10      29.81R
Wrightstown    FAIR      58  57  97 W6        29.80
Toms River     FAIR     N/A N/A N/A NW6       29.79S
Belmar         CLOUDY    59  58  96 W7        29.79S
$$

PAZ047>061-062-071-230900-
Eastern Pennsylvania

CITY           SKY/WX    TMP DP  RH WIND       PRES   REMARKS
Philadelphia   FAIR      57  53  86 W8        29.83R
Allentown      FAIR      52  49  89 SW5       29.82S
Scranton       CLOUDY    53  52  96 SW5       29.84S
$$

CTZ002-004>006-009-010-012-RIZ004-006-007-MAZ004-011-015-230900-
Southern New England

 In CT

CITY           SKY/WX    TMP DP  RH WIND       PRES   REMARKS
Bradley Intl   RAIN      55  52  89 NW9       29.75F FOG
Hartford       LGT RAIN  55  54  96 N3        29.74F FOG
Danbury        CLOUDY    57  55  93 W3        29.77F
Wtrbury/Oxford LGT RAIN  56  55  97 N9        29.76F FOG
Norwalk Harbor   N/A     59 N/A N/A NW15        N/A
Bridgeport     LGT RAIN  61  59  93 NW10G20   29.73S
Meriden        LGT RAIN  55  54  96 W7        29.75R FOG
New Haven      CLOUDY    65  63  93 SE3       29.72F FOG
Chester        LGT RAIN  61  61 100 CALM      29.73F
Groton         LGT RAIN  62  62 100 E9        29.73F FOG
Willimantic    LGT RAIN  57  57 100 CALM      29.76F FOG

 In RI

CITY           SKY/WX    TMP DP  RH WIND       PRES   REMARKS
Providence     CLOUDY    57  57 100 CALM      29.77F FOG
Block Island   LGT RAIN  62  62 100 S10       29.75F VSB 3/4
Westerly       LGT RAIN  63  63 100 SE5       29.75F VSB 1/2

In MA

CITY           SKY/WX    TMP DP  RH WIND       PRES   REMARKS
Boston         LGT RAIN  59  56  89 E5        29.77F VSB 1
Worcester      FOG       52  52 100 NE5       29.77F VSB 1/2
Westfield      LGT RAIN  54  52  93 NW7       29.77S FOG
Provincetown   LGT RAIN  60  60 100 SE10        N/A
Nantucket      CLOUDY    60  59  96 SE8       29.78F
$$

ANZ330-335-338-340-345-350-353-355-230900-
Coastal Marine Observations


STATION/POSITION TIME  SKY/WX   TEMP    WIND        PRES    VSBY  WAVE
                                AIR SEA DIR/SP/G                  HT/PER
                 (UTC)          (F)     (DEG/KT/KT) (MB)    (MI)  (FT/S)
NY Harb Entrance 0750            62 63  290/ 14/ 17 1007.7          4/11
20 S Fire Island 0750            62 62  290/ 14/ 17 1006.9          5/ 8
Great South Bay  0715            61 57  230/ 10/ 16   N/A
23 SSW Montauk P NOT AVBL
15 E Barnegat Li 0730               63                N/A           5/ 8
Hudson Canyon    0750            67 64  170/ 12/ 16 1007.0          6/ 8
Kings Point      0730            60 61   30/  9/ 13 1008.1
Execution Rocks  0745            60 32  330/ 10/ 14   N/A
Western LI Sound 0700            61     320/ 16/ 21   N/A           2/ 4
Central LI Sound NOT AVBL
Robbins Reef     0730            62     300/  8/ 12 1007.8
$$


>>>>>>>>>>>>>>>>>>>>>>>>>>>> KEY <<<<<<<<<<<<<<<<<<<<<<<<<<<
>                                                          <
>     SKY/WX - Sky Condition/Present Weather               <
>     TMP    - Temperature in Fahrenheit                   <
>     DP     - Dew Point in Fahrenheit                     <
>     RH     - Relative Humidity in Percent                <
>     WIND   - Direction (from) and Speed in MPH           <
>     PRES   - Mean Sea Level Pressure (inches of Hg)      <
>     WCI    - Wind Chill Index                            <
>     VSB    - Visibility in Miles                         <
>     HX     - Heat Index                                  <
>     TC     - Temperature in Celsius                      <
>     VRB    - Variable Wind Direction                     <
>                                                          <
>>>>>>>>>>>>>>>>>>>>>>>>>>>> KEY <<<<<<<<<<<<<<<<<<<<<<<<<<<


 

View Past Reports for Upton, NY.

Products Courtesy of NOAA-NWS
NWS Information Parsing Script by Ken True at Saratoga Weather - Script by SE Lincoln Weather.